Location: C.E.K. Mees Observatory
(42.7003°N, 77.4088°W)
Time: 03:14:25
(UTC-05:00)

Tiangong 1 - Pass Details

Date: 12 October 2017
Orbit: 275 x 302 km, 42.8° (Epoch: 14 December)

Event Time Altitude Azimuth Distance (km) Brightness Sun altitude
Rises 19:29:16 0° 277° (W) 2,086 6.9 -11.4°
Reaches altitude 10° 19:31:18 10° 276° (W) 1,238 5.2 -11.7°
Maximum altitude 19:34:04 80° 191° (S) 326 0.7 -12.2°
Enters shadow 19:35:26 26° 105° (ESE) 667 1.7 -12.5°
